Regional Weather Roundup
Issued by NWS Huntsville, AL

Home | Current Version | Previous Version | Text Only | Print | Product List | Glossary On
Versions: 1 2 3 4 5 6 7 8 9 10 11 12 13 14 15 16 17 18 19 20 21 22 23 24 25 26 27 28 29 30 31 32 33 34 35 36 37 38 39 40 41 42 43 44 45 46 47 48 49 50
951
ASUS44 KHUN 231410
RWRHUN

WEATHER ROUNDUP FOR THE TENNESSEE VALLEY
NATIONAL WEATHER SERVICE HUNTSVILLE AL
800 AM CST FRI FEB 23 2018

ALZ001>004-231500-
NORTHWEST ALABAMA

CITY           SKY/WX    TMP DP  RH WIND       PRES   REMARKS
SHOALS AIRPORT FAIR      67  61  81 S6        30.35R
$$

ALZ005>007-016-231500-
NORTH CENTRAL ALABAMA

CITY           SKY/WX    TMP DP  RH WIND       PRES   REMARKS
DECATUR AP     FAIR      67  63  87 S6        30.35R
HUNTSVILLE AP  FAIR      66  64  93 S6        30.34R
MERIDIANVILLE  FAIR      66  62  86 S3        30.35R
REDSTONE ARSN  FAIR      67  63  87 S7        30.34R
VINEMONT AP    FAIR      65  60  86 S8        30.38R
$$

ALZ008>010-231500-
NORTHEAST ALABAMA

CITY           SKY/WX    TMP DP  RH WIND       PRES   REMARKS
FORT PAYNE     FAIR      63  59  88 CALM      30.37R
SCOTTSBORO AP  FAIR      68  64  88 CALM      30.37R
$$

TNZ076-096-097-231500-
SOUTHEASTERN MIDDLE TENNESSEE

CITY           SKY/WX    TMP DP  RH WIND       PRES   REMARKS
TULLAHOMA      MOSUNNY   66  61  82 S7        30.34R
WINCHESTER     SUNNY     66  61  82 SE3       30.36R
$$

...SURROUNDING SITES...

CITY           SKY/WX    TMP DP  RH WIND       PRES   REMARKS
ATLANTA        FOG       62  62 100 SE6       30.42R VSB 3/4
ANNISTON       FAIR      65  60  84 NE6       30.38R
BIRMINGHAM     FAIR      67  61  81 SE5       30.38R
CHATTANOOGA    FAIR      65  60  84 CALM      30.37S
CORINTH        FAIR      63  63 100 CALM      30.32R
DALTON         FAIR      61  61 100 CALM      30.40S
GADSDEN        FAIR      64  63  96 CALM      30.38R
GOLDEN TRNGL   CLOUDY    63  61  93 SW6       30.35R
HALEYVILLE     CLOUDY    63  63 100 S5        30.37R
JACKSON TN     PTSUNNY   65  63  93 S7        30.30R
MEMPHIS        FOG       58  57  97 CALM      30.30R VSB 1/2
NASHVILLE      PTSUNNY   63  60  90 SE5       30.32R
OXFORD MS      FAIR      61  61 100 VRB6      30.32S
ROME           FAIR      64  62  93 CALM      30.38R
SAVANNAH       SUNNY     66  63  88 S7        30.32R
SELMER         SUNNY     64  63  94 VRB6      30.31R
TUPELO         FAIR      65  61  87 SE6       30.32R
TUSCALOOSA     CLOUDY    65  65 100 S5        30.35R
$$

...GULF COAST WEATHER...

CITY           SKY/WX    TMP DP  RH WIND       PRES   REMARKS
GULFPORT       CLOUDY    72  71  97 SE13      30.28S
PASCAGOULA     CLOUDY    69  67  93 E6        30.31R FOG
MOBILE         CLOUDY    69  67  93 SE8       30.33R FOG
GULF SHORES    CLOUDY    69  69 100 E8        30.33R
DESTIN         FAIR      71  64  78 E9        30.33S HAZE
PANAMA CITY    SUNNY     70  66  86 E10       30.35R FOG
APPALACHICOLA  CLOUDY    70  69  97 SE9       30.37R
$$





USA.gov is the U.S. government's official web portal to all federal, state and local government web resources and services.